{"data":{"norad_id":53868,"epoch":"2026-09-20T22:13:09.638400Z","epoch_age_seconds":47262,"freshness":"FRESH","line1":"1 53868U 22114BC  26263.92580600  .00000412  00000+0  22713-4 0  9994","line2":"2 53868  53.1597  91.7742 0001428  82.3255 277.7910 15.35401810223088","mean_motion":15.3540181,"eccentricity":0.0001428,"inclination_deg":53.1597,"raan_deg":91.7742,"arg_perigee_deg":82.3255,"mean_anomaly_deg":277.791,"bstar":2.2713e-5,"rev_number":22308,"period_min":93.786524844594,"perigee_km":458.7508218657,"apogee_km":460.70371590089,"semimajor_km":6837.8642688833,"source":"CELESTRAK","updated_at":"2026-09-21T09:00:33.026523Z"}}